Regional Weather Roundup
Issued by NWS

Home | Current Version | Previous Version | Graphics & Text | Print | Product List | Glossary On
Versions: 1 2 3 4 5 6 7 8 9 10 11 12 13 14 15 16 17 18 19 20 21 22 23 24 25 26 27 28 29 30 31 32 33 34 35 36 37 38 39 40 41 42 43 44 45 46 47 48 49 50
615
ASUS44 KMEG 251410
RWRTN
TENNESSEE HOURLY STATE WEATHER ROUNDUP
NATIONAL WEATHER SERVICE MEMPHIS TN
800 AM CST SAT FEB 25 2017

TNZ002-004-019-021-049-052-054-088>092-251500-
WEST TENNESSEE

CITY           SKY/WX    TMP DP  RH WIND       PRES   REMARKS
MEMPHIS INTL   MOSUNNY   36  22  56 NW16G24   30.09R WCI  26
NWS MEMPHIS      N/A     35 N/A N/A MISG        N/A
JACKSON        SUNNY     37  23  56 NW14      30.06R WCI  28
UNION CITY     SUNNY     34  16  47 W13G21    30.03R WCI  25
PARIS          SUNNY     30  18  59 NW6       30.03R WCI  24
HUNTINGDON     MOSUNNY   36  23  60 NW10      30.03R WCI  28
$$

TNZ008-025-027-028-033-062-065-066-251500-
NORTH MIDDLE TENNESSEE

CITY           SKY/WX    TMP DP  RH WIND       PRES   REMARKS
NASHVILLE      MOSUNNY   43  25  49 NW12G22   29.96R
PORTLAND       CLOUDY    37  27  65 W14G22    29.95R WCI  29
CLARKSVILLE    PTSUNNY   36  20  52 NW17G25   29.99R WCI  26
SMYRNA         MOSUNNY   43  27  53 W17       29.97R
COOKEVILLE     SUNNY     43  30  61 NW14      29.89R
GALLATIN       CLOUDY    41  28  60 W15G25    29.97R
CROSSVILLE     SUNNY     43  31  62 W10G23    29.85R
$$

TNZ061-075-076-078-094-096-097-251500-
SOUTH MIDDLE TENNESSEE

CITY           SKY/WX    TMP DP  RH WIND       PRES   REMARKS
FAYETTEVILLE   SUNNY     45  32  61 W8G16     29.94R
TULLAHOMA      SUNNY     43  28  56 W16       29.93R
WINCHESTER     SUNNY     45  30  57 W10       29.93R
MCMINNVILLE    SUNNY     45  30  57 NW10      29.91R
COLUMBIA       SUNNY     39  27  60 W12       29.96R WCI  32
SHELBYVILLE    MOSUNNY   45  34  65 NW14      29.95R
$$

TNZ017-018-042-046-047-251500-
NORTHEAST TENNESSEE

CITY           SKY/WX    TMP DP  RH WIND       PRES   REMARKS
TRI CITIES     LGT RAIN  50  49  96 W13       29.76R
ELIZABETHTON   HVY RAIN  52  48  87 W13G30    29.75R
$$

TNZ012-013-036-069-073-074-251500-
CENTRAL EAST TENNESSEE

CITY           SKY/WX    TMP DP  RH WIND       PRES   REMARKS
KNOXVILLE      PTSUNNY   55  42  61 W13       29.81R
OAK RIDGE      MOSUNNY   54  41  61 W12G21    29.82R
GATLINBURG     PTSUNNY   52  46  82 SW6       29.81S
MORRISTOWN     CLOUDY    52  43  71 W8        29.79R
JACKSBORO      PTSUNNY   50  41  71 VRB6      29.84R
$$

TNZ083-085-099-251500-
SOUTHEAST TENNESSEE

CITY           SKY/WX    TMP DP  RH WIND       PRES   REMARKS
CHATTANOOGA    MOSUNNY   53  28  38 NW17      29.88R
$$

SKY/WX REPORTED AS FAIR MEANS FEW OR NO CLOUDS BELOW
12 THOUSAND FEET.





USA.gov is the U.S. government's official web portal to all federal, state and local government web resources and services.